This is the latest recevied weather packets stored in our database for station/object N5CSU. If no packets are shown the sender has not sent any weather packets the latest 10 day(s).
| Time | Temp. | Humidity | Pressure | Rain* | Wind** | Luminosity | Snow |
|---|---|---|---|---|---|---|---|
| 1777908597 | 21.67° C | 66% | 1013.4 hPa | 0 mm | - | 19 W/m² | - |
| 1777908293 | 21.67° C | 65% | 1013.3 hPa | 0 mm | - | 20 W/m² | - |
| 1777907989 | 21.11° C | 65% | 1013.4 hPa | 0 mm | - | 16 W/m² | - |
| 1777907685 | 21.67° C | 64% | 1013.6 hPa | 0 mm | - | 18 W/m² | - |
| 1777907381 | 21.11° C | 65% | 1013.6 hPa | 0 mm | - | 16 W/m² | - |
| 1777907077 | 21.11° C | 66% | 1013.8 hPa | 0 mm | - | 19 W/m² | - |
| 1777906775 | 20.56° C | 67% | 1013.7 hPa | 0 mm | - | 19 W/m² | - |
| 1777906472 | 20.56° C | 67% | 1013.7 hPa | 0 mm | - | 16 W/m² | - |
| 1777906168 | 20.56° C | 68% | 1013.9 hPa | 0 mm | - | 15 W/m² | - |
| 1777905865 | 20.56° C | 68% | 1014 hPa | 0 mm | - | 14 W/m² | - |
| 1777905562 | 20° C | 69% | 1013.8 hPa | 0 mm | - | 15 W/m² | - |
| 1777905259 | 20° C | 69% | 1013.8 hPa | 0 mm | - | 15 W/m² | - |
| 1777904956 | 20° C | 69% | 1013.8 hPa | 0 mm | - | 11 W/m² | - |
| 1777904654 | 20° C | 70% | 1014 hPa | 0 mm | - | 14 W/m² | - |
| 1777904351 | 20° C | 70% | 1013.9 hPa | 0 mm | - | 12 W/m² | - |
| 1777904047 | 19.44° C | 71% | 1014.1 hPa | 0 mm | - | 14 W/m² | - |
| 1777903744 | 19.44° C | 71% | 1014.2 hPa | 0 mm | - | 11 W/m² | - |
| 1777903440 | 19.44° C | 71% | 1014.1 hPa | 0 mm | - | 10 W/m² | - |
| 1777903136 | 18.89° C | 71% | 1014.3 hPa | 0 mm | - | 11 W/m² | - |
| 1777902833 | 18.89° C | 73% | 1014.2 hPa | 0 mm | - | 11 W/m² | - |
| 1777902530 | 18.89° C | 74% | 1014.1 hPa | 0 mm | - | 11 W/m² | - |
| 1777902227 | 18.33° C | 74% | 1014.2 hPa | 0 mm | - | 10 W/m² | - |
| 1777901925 | 18.33° C | 73% | 1014.1 hPa | 0 mm | - | 10 W/m² | - |
| 1777901623 | 18.33° C | 74% | 1014.1 hPa | 0 mm | - | 12 W/m² | - |
| 1777901320 | 18.33° C | 74% | 1014.2 hPa | 0 mm | - | 12 W/m² | - |
* Rain latest hour (hover to see other rain measurements)
** Current wind speed in m/s (hover to see current wind gust speed)